Weather in Severne

Ukraine / Donetsk Region     48°05′08″N   38°41′39″E
temp.,
°C
wind,
m/s
gust,
m/s
humid.,
%
clouds,
%
prec.,
mm/h
press.,
hPa
HPBL,
m
24 january, mon
mon2423:00−4nne81495100 0.9 1017459
02:00−3ne71396100 2.8 1017459
05:00−3ne71296100 1.8 1018494
08:00−4ne71194100 3.0 1019443
11:00−4ne7119269 0.4 1020426
14:00−4ene5895100 0.7 1022463
17:00−8ne7119391 0.1 1022230
20:00−7ne5995100 0.2 1023287
25 january, tue
tue2523:00−6ene4895100 0.1 1023225
02:00−6ene2596100 0.2 1023130
05:00−7ne2297100 0.0 102346
08:00−5e2395100 0.1 1023131
11:00−2ese3495100 0.1 1023301
14:00−1sw489034 0.1 1023545
17:00−6sw119762 0.0 102310
20:00−8sw229974 0.0 102311
26 january, wed
wed2623:00−11w1110091 0.0 102310
02:00−6wsw119691 0.0 102147
05:00−9wnw1110089 0.0 102014
08:00−6w1296100 0.3 102175
11:00−3sw2393100 0.3 1020290
14:00−2sw4689100 0.4 1019585
17:00−4sw1197100 0.1 102010
20:00−6wnw019896 0.3 102010
27 january, thu
thu2723:00−6wnw0097100 0.4 102016
02:00−8nw1197100 0.8 102010
05:00−8nw1198100 0.1 101910
08:00−7w1195100 0.1 101944
11:00−4wsw2390100 0.2 1019321
14:00−4w338688 0.3 1018460
17:00−6w1296100 0.1 101844
20:00−6wsw2495100 0.1 1019163
28 january, fri
fri2823:00−9wsw229694 0.0 101915
02:00−14w229866 0.0 10199
05:00−12ssw1297100 0.0 101828
08:00−7sse31096100 0.4 1017245
11:000ssw512100100 1.4 1015677
14:000sw71499100 2.6 1014824
17:00+1sw71599100 1.2 1012809
20:00+1sw61499100 1.6 1012724